Location: B
(0.0000°N, 0.0000°E)
Time: 16:22:56
(UTC+02:00)

Amateur Radio Satellites - All Passes

Search period start: 02 August 2015 15:52
Search period end: 03 August 2015 15:52
Location: B, 0.0000°N, 0.0000°E

Satellite Date Start Highest point End Downlink Frequencies (MHz)
Time Altitude Azimuth
VERMONT LUNAR 02 Aug 15:54:08 15:57:02 36° 317° (NW) 15:59:57 437.305
Cosmos 2504 02 Aug 16:00:50 16:09:26 74° 267° (W) 16:17:48 435.465 / 435.565
AO-7 02 Aug 16:10:19 16:13:45 14° 76° (ENE) 16:17:59 29.400- 29.500
BEESAT 02 Aug 16:12:17 16:16:14 25° 281° (W) 16:20:04 436.000
JUGNU 02 Aug 16:12:28 16:15:01 13° 189° (S) 16:17:29 437.505
SRMSAT 02 Aug 16:14:33 16:19:25 25° 197° (SSW) 16:24:15 437.500
STARS 02 Aug 16:15:14 16:18:09 18° 101° (E) 16:21:17 437.465
DANDE 02 Aug 16:25:56 16:30:29 25° 89° (E) 16:36:17 436.750
PHONESAT 2.4 02 Aug 16:27:46 16:30:08 18° 139° (SE) 16:32:35 2401.200-2431.200
SWISSCUBE 02 Aug 16:35:05 16:37:03 12° 280° (W) 16:38:39 437.505
CUSAT 1 02 Aug 16:36:21 16:42:15 54° 87° (E) 16:49:41 437.405
KKS-1 02 Aug 16:43:39 16:48:07 88° 280° (W) 16:52:37 437.445
Gurwin Techsat 1B 02 Aug 16:51:37 16:56:04 26° 259° (WSW) 17:00:20 435.225
ITAMSAT 1 02 Aug 17:07:04 17:10:53 20° 259° (WSW) 17:14:28 435.822/435.867
JAS-2 02 Aug 17:31:17 17:36:19 40° 260° (W) 17:41:45 435.910
MOZHAYETS 4 02 Aug 17:43:39 17:47:51 38° 101° (E) 17:52:08
STARS 02 Aug 17:51:11 17:54:28 20° 281° (W) 17:57:37 437.465
AO-7 02 Aug 17:58:10 18:06:29 71° 255° (WSW) 18:14:48 29.400- 29.500
GONETS M04 02 Aug 17:58:33 18:04:49 23° 85° (E) 18:11:35
HORYU 2 02 Aug 18:03:22 18:07:25 35° 258° (WSW) 18:11:27 437.375
PHONESAT 2.4 02 Aug 18:05:04 18:08:01 25° 318° (NW) 18:10:56 2401.200-2431.200
SRMSAT 02 Aug 18:06:43 18:09:20 13° 189° (S) 18:11:53 437.500
DANDE 02 Aug 18:08:21 18:13:26 29° 259° (W) 18:19:30 436.750
CUSAT 1 02 Aug 18:21:28 18:25:17 15° 257° (WSW) 18:28:52 437.405
ISS 02 Aug 19:18:54 19:22:09 88° 137° (SE) 19:25:24 145.825
Cubesat XI-IV 02 Aug 19:27:11 19:32:02 35° 78° (ENE) 19:36:55 437.490
CUBESAT XI-V 02 Aug 19:41:01 19:45:33 64° 101° (E) 19:50:07 437.345
RS-15 02 Aug 19:46:40 19:53:19 19° 116° (ESE) 20:00:46 29.354- 29.394
JUGNU 02 Aug 19:52:19 19:55:13 14° 169° (S) 19:58:14 437.505
GONETS M04 02 Aug 19:53:20 20:01:33 44° 266° (W) 20:09:42
PCSat 02 Aug 20:03:54 20:07:46 21° 69° (ENE) 20:11:52 145.827
PRISM 02 Aug 20:12:03 20:15:13 23° 101° (E) 20:18:31 437.425
CUTE-I 02 Aug 20:22:16 20:27:30 51° 258° (WSW) 20:32:40 437.470
Cosmos 2499 02 Aug 20:36:36 20:45:27 78° 86° (E) 20:53:58 435.465 / 435.565
STRAND 1 02 Aug 20:43:44 20:48:49 87° 107° (ESE) 20:53:56 437.568
SO-50 02 Aug 20:56:16 21:01:01 88° 58° (ENE) 21:05:38 436.795
Cubesat XI-IV 02 Aug 21:08:53 21:12:02 15° 259° (W) 21:14:49 437.490
DOVE 4 02 Aug 21:19:22 21:21:54 16° 81° (E) 21:24:36 437.250
CANX-2 02 Aug 21:23:42 21:26:08 16° 80° (E) 21:28:48 2200.000
BRITE-PL 02 Aug 21:32:22 21:37:18 76° 259° (WSW) 21:41:48 437.365/2234.400
GOMX 1 02 Aug 21:36:09 21:40:41 59° 80° (E) 21:44:55 467.674
JUGNU 02 Aug 21:39:48 21:44:53 29° 162° (SSE) 21:50:02 437.505
PCSat 02 Aug 21:46:36 21:51:05 25° 249° (WSW) 21:55:24 145.827
SRMSAT 02 Aug 21:46:45 21:49:55 15° 169° (S) 21:53:10 437.500
PRISM 02 Aug 21:48:43 21:50:33 12° 280° (W) 21:52:08 437.425
RS-15 02 Aug 21:55:00 22:05:50 65° 292° (WNW) 22:16:33 29.354- 29.394
HO-68 02 Aug 21:55:46 22:02:42 55° 76° (ENE) 22:09:39 435.675
COMPASS 1 02 Aug 22:26:14 22:30:23 64° 79° (E) 22:34:33 437.405
Cosmos 2499 02 Aug 22:35:33 22:38:36 11° 264° (W) 22:40:35 435.465 / 435.565
M-CUBED/EXP-1 PRIME 02 Aug 22:36:16 22:39:48 24° 103° (ESE) 22:43:16 437.505
DELFI C3 02 Aug 22:43:12 22:45:46 17° 80° (E) 22:48:30 145.870
SEEDS 02 Aug 22:43:51 22:47:56 48° 259° (W) 22:52:00 437.485
CUTE 1.7 + AOD 2 02 Aug 22:49:30 22:53:17 30° 259° (W) 22:57:00 437.475
FUNcube-1 02 Aug 22:50:11 22:52:58 18° 80° (E) 22:55:54 145.935
BEESAT 2 02 Aug 22:52:08 22:55:54 39° 112° (ESE) 22:59:43 435.950
CINEMA 3 02 Aug 22:53:31 22:57:40 61° 259° (WSW) 23:01:45 145.822/145.860
UWE-3 02 Aug 22:55:39 22:59:21 33° 79° (E) 23:03:06 435.000/436.395/437.385
DOVE 4 02 Aug 22:56:21 22:59:35 20° 259° (WSW) 23:02:35 437.250
CANX-2 02 Aug 22:58:44 23:01:56 20° 260° (W) 23:05:00 2200.000
Oscar 11 02 Aug 22:58:55 23:03:08 52° 79° (E) 23:07:21 145.826/435.025
AUBIESAT-1 02 Aug 23:03:27 23:07:43 47° 104° (ESE) 23:11:44 437.475
AAUSAT CUBESAT 2 02 Aug 23:06:34 23:10:28 37° 259° (W) 23:14:20 437.432
TIGRISAT 02 Aug 23:13:36 23:15:05 12° 100° (E) 23:16:57 435.000
CUBEBUG 2 02 Aug 23:14:01 23:18:10 89° 255° (WSW) 23:22:19 437.445
ANTELSAT 02 Aug 23:15:29 23:17:36 13° 100° (E) 23:20:02 437.575/2403.000
JUGNU 02 Aug 23:28:06 23:34:05 77° 160° (SSE) 23:40:07 437.505
BEESAT 3 02 Aug 23:29:46 23:33:28 35° 292° (WNW) 23:37:10 437.485
DX 1 02 Aug 23:32:35 23:35:05 16° 80° (E) 23:37:48 434.975-435.025
SRMSAT 02 Aug 23:34:31 23:39:44 31° 162° (SSE) 23:45:00 437.500
HO-68 02 Aug 23:46:13 23:50:21 15° 257° (WSW) 23:53:55 435.675
VELOX 1 02 Aug 23:52:56 23:55:22 15° 80° (E) 23:58:01 145.980
YUBILEINY 02 Aug 23:56:27 00:00:19 15° 97° (E) 00:05:03 435.215
POPSAT HIP 1 03 Aug 00:00:00 00:02:16 15° 100° (E) 00:04:48 437.405
50 SAT 03 Aug 00:00:46 00:03:44 22° 80° (E) 00:06:48 437.505
Cosmos 2491 03 Aug 00:01:39 00:07:05 19° 84° (E) 00:13:11 435.465 / 435.565
UNISAT 6 03 Aug 00:04:28 00:09:07 66° 101° (ESE) 00:13:45 437.425
ZACube-1 03 Aug 00:04:29 00:08:11 30° 259° (W) 00:11:49 437.345
QB50P2 03 Aug 00:07:19 00:10:23 20° 101° (E) 00:13:37 145.880/145.840
ESTCUBE 1 03 Aug 00:10:23 00:13:17 17° 80° (E) 00:16:23 437.505/2401.250
M-CUBED/EXP-1 PRIME 03 Aug 00:11:37 00:14:25 16° 286° (WNW) 00:16:55 437.505
DELFI C3 03 Aug 00:18:02 00:20:43 16° 260° (W) 00:23:12 145.870
FUNcube-1 03 Aug 00:26:32 00:29:11 16° 260° (W) 00:31:38 145.935
DUCHIFAT 1 03 Aug 00:29:11 00:33:06 37° 101° (E) 00:37:06 145.980
QB50P1 03 Aug 00:33:33 00:37:38 47° 101° (ESE) 00:41:47 145.935-145.965
NANOSAT C BR1 03 Aug 00:34:07 00:38:11 46° 101° (ESE) 00:42:20 145.865
AIST 2 03 Aug 00:35:19 00:39:22 47° 292° (WNW) 00:43:27 435.215
UKube-1 03 Aug 00:36:14 00:40:32 67° 258° (WSW) 00:44:49 .
HUMSAT D 03 Aug 00:37:59 00:41:40 31° 259° (W) 00:45:17 437.325/437.525
O/OREOS (USA 219) 03 Aug 00:44:30 00:46:57 15° 107° (ESE) 00:49:39 437.305
TIGRISAT 03 Aug 00:47:29 00:51:44 33° 281° (W) 00:55:55 435.000
AISAT 03 Aug 00:48:50 00:53:17 78° 258° (WSW) 00:57:41 437.250
ANTELSAT 03 Aug 00:50:09 00:54:16 30° 281° (W) 00:58:17 437.575/2403.000
CUBEBUG 1 03 Aug 00:57:57 01:02:19 65° 79° (ENE) 01:06:39 437.445
DX 1 03 Aug 01:07:48 01:11:13 22° 259° (W) 01:14:28 434.975-435.025
JUGNU 03 Aug 01:17:38 01:23:13 39° 340° (NNW) 01:28:47 437.505
POLYITAN 1 03 Aug 01:17:38 01:21:37 36° 281° (W) 01:25:35 437.675
SRMSAT 03 Aug 01:23:03 01:29:05 81° 160° (SSE) 01:35:05 437.500
AIST 1 03 Aug 01:23:57 01:27:47 32° 265° (W) 01:31:35
SPROUT 03 Aug 01:28:00 01:31:52 34° 79° (E) 01:35:46 437.525
VELOX 1 03 Aug 01:28:13 01:31:47 23° 259° (W) 01:35:14 145.980
BUGSAT 1 03 Aug 01:29:10 01:33:09 46° 281° (W) 01:37:11 437.445
TISAT 1 03 Aug 01:33:55 01:37:03 21° 80° (E) 01:40:18 437.305
POPSAT HIP 1 03 Aug 01:34:38 01:38:01 22° 280° (W) 01:41:18 437.405
50 SAT 03 Aug 01:37:01 01:38:11 11° 260° (W) 01:39:05 437.505
QB50P2 03 Aug 01:43:21 01:46:09 16° 280° (W) 01:48:44 145.880/145.840
ESTCUBE 1 03 Aug 01:46:30 01:50:02 21° 259° (W) 01:53:24 437.505/2401.250
YUBILEINY 03 Aug 01:48:37 01:57:12 63° 274° (W) 02:05:43 435.215
Cosmos 2491 03 Aug 01:55:31 02:03:54 51° 266° (W) 02:12:15 435.465 / 435.565
Cosmos 2504 03 Aug 02:20:24 02:20:31 10° 96° (E) 02:21:27 435.465 / 435.565
O/OREOS (USA 219) 03 Aug 02:22:46 02:26:16 22° 286° (WNW) 02:29:37 437.305
Oscar 19 03 Aug 02:36:59 02:41:39 35° 102° (ESE) 02:46:24 437.125/150
BEESAT 03 Aug 02:56:29 03:00:40 31° 79° (ENE) 03:04:56 436.000
JUGNU 03 Aug 03:08:50 03:12:43 17° 347° (NNW) 03:16:31 437.505
TISAT 1 03 Aug 03:10:18 03:12:41 14° 260° (W) 03:14:50 437.305
SRMSAT 03 Aug 03:12:52 03:18:22 37° 341° (NNW) 03:23:49 437.500
SWISSCUBE 03 Aug 03:16:44 03:21:31 67° 78° (ENE) 03:26:16 437.505
VERMONT LUNAR 03 Aug 03:22:43 03:25:47 66° 223° (SW) 03:28:50 437.305
ITUPSAT 1 03 Aug 03:38:33 03:43:22 72° 259° (WSW) 03:48:09 437.325
Gurwin Techsat 1B 03 Aug 03:49:32 03:54:44 58° 102° (ESE) 03:59:58 435.225
ITAMSAT 1 03 Aug 04:01:23 04:06:30 69° 102° (ESE) 04:11:40 435.822/435.867
Cosmos 2504 03 Aug 04:05:53 04:12:41 61° 274° (W) 04:19:39 435.465 / 435.565
PHONESAT 2.4 03 Aug 04:05:54 04:07:45 14° 41° (NE) 04:09:43 2401.200-2431.200
Oscar 19 03 Aug 04:18:07 04:20:55 14° 280° (W) 04:23:21 437.125/150
STARS 03 Aug 04:25:58 04:29:29 25° 79° (E) 04:33:07 437.465
AO-7 03 Aug 04:34:04 04:40:13 25° 105° (ESE) 04:46:46 29.400- 29.500
BEESAT 03 Aug 04:36:00 04:38:24 13° 259° (W) 04:40:28 436.000
HORYU 2 03 Aug 04:41:15 04:43:41 15° 101° (E) 04:46:22 437.375
KKS-1 03 Aug 04:56:32 05:00:53 57° 258° (WSW) 05:05:13 437.445
JUGNU 03 Aug 05:01:59 05:02:43 10° 356° (N) 05:03:23 437.505
JAS-2 03 Aug 05:02:49 05:10:30 81° 282° (WNW) 05:17:30 435.910
SRMSAT 03 Aug 05:04:21 05:08:02 16° 347° (NNW) 05:11:37 437.500
DANDE 03 Aug 05:16:01 05:21:12 88° 281° (W) 05:24:58 436.750
CUSAT 1 03 Aug 05:24:11 05:28:02 31° 272° (W) 05:31:02 437.405
PHONESAT 2.4 03 Aug 05:42:32 05:45:40 31° 222° (SW) 05:48:45 2401.200-2431.200
MOZHAYETS 4 03 Aug 06:00:09 06:04:44 67° 79° (ENE) 06:09:20
STARS 03 Aug 06:03:32 06:05:49 13° 260° (W) 06:07:49 437.465
HORYU 2 03 Aug 06:16:31 06:20:12 24° 281° (W) 06:23:46 437.375
AO-7 03 Aug 06:25:07 06:32:54 44° 285° (WNW) 06:40:34 29.400- 29.500
GONETS M04 03 Aug 06:30:34 06:38:48 47° 94° (E) 06:47:05
JUGNU 03 Aug 06:51:26 06:52:53 11° 6° (N) 06:54:25 437.505
ISS 03 Aug 06:52:30 06:55:37 47° 54° (NE) 06:58:47 145.825
CUTE-I 03 Aug 07:22:25 07:26:57 30° 102° (ESE) 07:31:38 437.470
RS-15 03 Aug 07:28:18 07:34:49 17° 63° (ENE) 07:42:36 29.354- 29.394
STRAND 1 03 Aug 07:40:15 07:42:27 13° 79° (E) 07:45:01 437.568
CUBESAT XI-V 03 Aug 07:59:27 08:04:09 71° 259° (WSW) 08:08:49 437.345
Cubesat XI-IV 03 Aug 08:06:18 08:11:35 78° 282° (WNW) 08:16:55 437.490
PRISM 03 Aug 08:15:19 08:18:49 26° 79° (E) 08:22:24 437.425
BRITE-PL 03 Aug 08:22:15 08:24:27 13° 102° (ESE) 08:27:07 437.365/2234.400
GONETS M04 03 Aug 08:29:08 08:35:34 21° 276° (W) 08:41:25
JUGNU 03 Aug 08:38:35 08:42:46 20° 15° (NNE) 08:47:00 437.505
PCSat 03 Aug 08:38:46 08:44:07 66° 109° (ESE) 08:49:28 145.827
SRMSAT 03 Aug 08:46:53 08:48:30 11° 7° (N) 08:50:12 437.500
Cosmos 2499 03 Aug 08:47:14 08:54:20 85° 274° (W) 09:01:44 435.465 / 435.565
CUTE-I 03 Aug 09:03:27 09:06:56 17° 281° (W) 09:10:09 437.470
SO-50 03 Aug 09:09:06 09:13:28 48° 293° (WNW) 09:17:57 436.795
STRAND 1 03 Aug 09:16:49 09:21:34 36° 258° (WSW) 09:26:14 437.568
CUTE 1.7 + AOD 2 03 Aug 09:22:25 09:24:10 13° 100° (E) 09:26:11 437.475
CANX-2 03 Aug 09:29:55 09:32:55 19° 100° (E) 09:36:04 2200.000
CINEMA 3 03 Aug 09:35:29 09:36:54 11° 100° (E) 09:38:44 145.822/145.860
RS-15 03 Aug 09:35:29 09:47:43 78° 248° (WSW) 09:59:58 29.354- 29.394
DOVE 4 03 Aug 09:37:37 09:42:13 36° 101° (ESE) 09:47:03 437.250
HO-68 03 Aug 09:47:25 09:54:11 46° 104° (ESE) 10:01:02 435.675
PRISM 03 Aug 09:52:33 09:54:08 11° 260° (W) 09:55:24 437.425
BRITE-PL 03 Aug 09:58:13 10:02:45 36° 280° (W) 10:07:34 437.365/2234.400
GOMX 1 03 Aug 09:58:24 10:03:23 68° 281° (WNW) 10:08:43 467.674
JUGNU 03 Aug 10:26:28 10:32:07 48° 20° (NNE) 10:37:46 437.505
COMPASS 1 03 Aug 10:30:59 10:35:10 77° 101° (E) 10:39:20 437.405
SRMSAT 03 Aug 10:34:10 10:38:30 21° 16° (NNE) 10:42:55 437.500
M-CUBED/EXP-1 PRIME 03 Aug 10:37:52 10:40:29 19° 74° (ENE) 10:43:21 437.505
ZACube-1 03 Aug 10:39:32 10:42:07 16° 100° (E) 10:44:57 437.345
DELFI C3 03 Aug 10:43:29 10:46:00 17° 100° (E) 10:48:42 145.870
BEESAT 2 03 Aug 10:47:08 10:50:54 43° 68° (ENE) 10:54:39 435.950
SEEDS 03 Aug 10:49:42 10:53:40 39° 281° (W) 10:57:36 437.485
CUTE 1.7 + AOD 2 03 Aug 10:56:27 10:59:58 25° 280° (W) 11:03:23 437.475
FUNcube-1 03 Aug 10:59:01 11:02:53 28° 100° (E) 11:06:51 145.935
AUBIESAT-1 03 Aug 11:04:19 11:07:46 41° 74° (ENE) 11:11:29 437.475
CANX-2 03 Aug 11:05:57 11:08:43 16° 280° (W) 11:11:17 2200.000
UWE-3 03 Aug 11:06:15 11:10:48 53° 101° (E) 11:15:23 435.000/436.395/437.385
Oscar 11 03 Aug 11:07:38 11:11:57 72° 101° (E) 11:16:16 145.826/435.025
CINEMA 3 03 Aug 11:09:18 11:13:58 40° 280° (W) 11:18:38 145.822/145.860
HUMSAT D 03 Aug 11:10:05 11:11:27 12° 100° (E) 11:13:09 437.325/437.525
AAUSAT CUBESAT 2 03 Aug 11:10:59 11:14:44 32° 280° (W) 11:18:26 437.432
DOVE 4 03 Aug 11:17:14 11:19:54 14° 279° (W) 11:22:15 437.250
BEESAT 3 03 Aug 11:24:06 11:27:38 32° 248° (WSW) 11:31:07 437.485
TIGRISAT 03 Aug 11:25:53 11:28:21 16° 80° (E) 11:31:02 435.000
CUBEBUG 2 03 Aug 11:26:06 11:30:47 60° 281° (W) 11:35:29 437.445
ANTELSAT 03 Aug 11:28:15 11:31:05 18° 79° (E) 11:34:07 437.575/2403.000
HO-68 03 Aug 11:36:50 11:41:49 19° 283° (WNW) 11:46:22 435.675
DX 1 03 Aug 11:41:36 11:44:49 21° 101° (E) 11:48:12 434.975-435.025
POLYITAN 1 03 Aug 11:52:08 11:52:44 10° 80° (E) 11:53:40 437.675
AIST 1 03 Aug 11:55:20 11:57:10 13° 96° (E) 11:59:19
50 SAT 03 Aug 11:57:23 12:00:15 20° 100° (E) 12:03:14 437.505
VELOX 1 03 Aug 12:03:57 12:07:17 22° 101° (E) 12:10:47 145.980
POPSAT HIP 1 03 Aug 12:06:14 12:08:58 18° 80° (E) 12:11:52 437.405
M-CUBED/EXP-1 PRIME 03 Aug 12:13:45 12:15:15 12° 258° (WSW) 12:16:32 437.505
QB50P2 03 Aug 12:13:51 12:17:14 24° 80° (E) 12:20:40 145.880/145.840
ZACube-1 03 Aug 12:14:33 12:18:21 25° 280° (W) 12:22:01 437.345
JUGNU 03 Aug 12:15:23 12:21:10 61° 201° (SSW) 12:26:57 437.505
UNISAT 6 03 Aug 12:18:16 12:22:33 80° 258° (WSW) 12:26:51 437.425
DELFI C3 03 Aug 12:18:21 12:20:57 16° 280° (W) 12:23:22 145.870
SRMSAT 03 Aug 12:22:15 12:27:59 52° 20° (NNE) 12:33:45 437.500
ESTCUBE 1 03 Aug 12:23:53 12:27:34 26° 101° (E) 12:31:22 437.505/2401.250
YUBILEINY 03 Aug 12:26:40 12:34:06 32° 85° (E) 12:41:49 435.215
Cosmos 2491 03 Aug 12:33:13 12:41:14 41° 95° (E) 12:49:21 435.465 / 435.565
AIST 2 03 Aug 12:34:25 12:38:11 36° 248° (WSW) 12:41:55 435.215
DUCHIFAT 1 03 Aug 12:35:16 12:39:17 46° 79° (E) 12:43:18 145.980
FUNcube-1 03 Aug 12:36:42 12:39:05 14° 280° (W) 12:41:11 145.935
QB50P1 03 Aug 12:40:07 12:44:16 59° 79° (E) 12:48:24 145.935-145.965
NANOSAT C BR1 03 Aug 12:40:27 12:44:35 58° 79° (E) 12:48:42 145.865
HUMSAT D 03 Aug 12:43:22 12:47:05 28° 281° (W) 12:50:43 437.325/437.525
UKube-1 03 Aug 12:45:11 12:49:21 49° 282° (WNW) 12:53:33 .
O/OREOS (USA 219) 03 Aug 12:54:11 12:57:58 26° 74° (ENE) 13:01:53 437.305
AISAT 03 Aug 13:01:01 13:05:19 52° 281° (WNW) 13:09:40 437.250
TIGRISAT 03 Aug 13:01:47 13:05:00 20° 260° (W) 13:08:03 435.000
ANTELSAT 03 Aug 13:04:49 13:07:45 18° 260° (W) 13:10:32 437.575/2403.000
CUBEBUG 1 03 Aug 13:08:10 13:12:31 88° 283° (WNW) 13:16:55 437.445
DX 1 03 Aug 13:18:11 13:20:57 16° 280° (W) 13:23:30 434.975-435.025
POLYITAN 1 03 Aug 13:24:53 13:28:33 28° 259° (W) 13:32:07 437.675
AIST 1 03 Aug 13:31:09 13:34:43 23° 275° (W) 13:38:09
50 SAT 03 Aug 13:32:44 13:34:41 13° 280° (W) 13:36:23 437.505
BUGSAT 1 03 Aug 13:33:02 13:36:56 40° 259° (WSW) 13:40:44 437.445
SPROUT 03 Aug 13:35:47 13:39:54 45° 101° (ESE) 13:44:04 437.525
TISAT 1 03 Aug 13:39:17 13:42:47 26° 101° (E) 13:46:23 437.305
VELOX 1 03 Aug 13:40:54 13:43:43 16° 280° (W) 13:46:19 145.980
POPSAT HIP 1 03 Aug 13:41:50 13:44:43 17° 259° (W) 13:47:25 437.405
QB50P2 03 Aug 13:51:01 13:52:59 13° 260° (W) 13:54:42 145.880/145.840
ESTCUBE 1 03 Aug 14:02:01 14:04:20 13° 280° (W) 14:06:21 437.505/2401.250
JUGNU 03 Aug 14:05:48 14:10:25 24° 197° (SSW) 14:15:00 437.505
SRMSAT 03 Aug 14:11:24 14:17:12 57° 201° (SSW) 14:23:03 437.500
Cosmos 2504 03 Aug 14:19:51 14:24:46 18° 84° (E) 14:30:16 435.465 / 435.565
YUBILEINY 03 Aug 14:23:06 14:30:47 32° 265° (W) 14:38:14 435.215
ITUPSAT 1 03 Aug 14:26:44 14:27:57 11° 100° (E) 14:29:35 437.325
Cosmos 2491 03 Aug 14:30:56 14:37:59 25° 275° (W) 14:44:34 435.465 / 435.565
O/OREOS (USA 219) 03 Aug 14:34:56 14:37:18 13° 253° (WSW) 14:39:23 437.305
VERMONT LUNAR 03 Aug 14:51:19 14:54:24 65° 137° (SE) 14:57:29 437.305
Gurwin Techsat 1B 03 Aug 14:53:13 14:53:24 10° 80° (E) 14:54:06 435.225
ITAMSAT 1 03 Aug 15:01:01 15:02:12 11° 80° (E) 15:03:50 435.822/435.867
Oscar 19 03 Aug 15:10:21 15:15:29 88° 258° (WSW) 15:20:36 437.125/150
TISAT 1 03 Aug 15:16:39 15:18:26 12° 280° (W) 15:19:57 437.305
BEESAT 03 Aug 15:18:01 15:22:41 62° 101° (ESE) 15:27:25 436.000
SWISSCUBE 03 Aug 15:38:55 15:43:36 61° 282° (WNW) 15:48:18 437.505
PHONESAT 2.4 03 Aug 15:44:13 15:45:19 11° 140° (SE) 15:46:33 2401.200-2431.200
